Regional Weather Roundup
Issued by NWS

Home | Current Version | Previous Version | Graphics & Text | Print | Product List | Glossary On
Versions: 1 2 3 4 5 6 7 8 9 10 11 12 13 14 15 16 17 18 19 20 21 22 23 24 25 26 27 28 29 30 31 32 33 34 35 36 37 38 39 40 41 42 43 44 45 46 47 48 49 50
493
ASUS45 KSLC 010610
RWRUT

UTAH REGIONAL WEATHER ROUNDUP
NATIONAL WEATHER SERVICE SALT LAKE CITY UT
1200 AM MDT SAT OCT 01 2016

UTZ001>011-023>025-010700-

NORTHERN UTAH

CITY           SKY/WX    TMP DP  RH WIND       PRES   REMARKS
BRIGHAM CITY     N/A     57  52  81 CALM      30.07F
HILL AFB       CLEAR     63  45  50 E15       30.09F
LOGAN          CLEAR     55  49  80 CALM      30.09S
OGDEN          CLEAR     62  46  55 S10       30.07S
PROVO AIRPORT  CLEAR     62  47  57 SE7       30.11S
SALT LAKE CITY CLEAR     65  48  54 SE9       30.07S
VERNAL         CLEAR     52  48  86 W5        30.21R
WENDOVER       CLEAR     64  48  55 NE10      30.03S
HEBER CITY     CLEAR     46  43  87 CALM      30.18S
WEST JORDAN    CLEAR     63  46  54 SW9       30.10S

$$

UTZ012>022-026-027-010700-

SOUTHERN/CENTRAL UTAH

CITY           SKY/WX    TMP DP  RH WIND       PRES   REMARKS
BLANDING       CLEAR     51  47  85 N6        30.31S
BRYCE CANYON   CLEAR     44  41  89 CALM      30.33S
CEDAR CITY     CLEAR     59  45  59 SE7       30.19R
DELTA          CLEAR     55  43  62 S9        30.12S
MILFORD        CLEAR     61  44  53 SW10      30.14R
MOAB/CYNLANDS  CLEAR     60  53  77 CALM      30.14S
PRICE          CLEAR     54  48  80 N9        30.23S
ST GEORGE      CLEAR     72  50  46 SE7       30.06S

$$

REGIONAL REPORTS     COLORADO/ARIZONA

CITY           SKY/WX    TMP DP  RH WIND       PRES   REMARKS
CRAIG, CO      CLEAR     44  42  93 CALM      30.27R
GRAND JUNCTION CLEAR     59  49  69 E9        30.19R
RIFLE          CLEAR     51  46  83 CALM      30.25R
MONTROSE       CLEAR     51  44  77 SE6       30.26S
CORTEZ         CLEAR     48  43  82 E5        30.25R
PAGE, AZ       CLEAR     66  53  63 S5        30.14S
GRAND CANYON   CLEAR     47  44  90 E3        30.30S
KINGMAN        CLEAR     63  32  31 SE8       30.09R
FLAGSTAFF      CLEAR     44  44 100 CALM      30.32S

$$

REGIONAL REPORTS    NEVADA/IDAHO/WYOMING

CITY           SKY/WX    TMP DP  RH WIND       PRES   REMARKS
LAS VEGAS, NV  PTCLDY    81  39  22 S3        29.96R
ELY            CLEAR     56  36  47 SW10      30.17R
ELKO           PTCLDY    59  47  64 CALM      30.03S
POCATELLO, ID  CLEAR     60  46  59 CALM      30.06R
BURLEY         MOCLDY    60  49  66 E8        30.01R
EVANSTON, WY   CLOUDY    53  39  59 SE5       30.25F
ROCK SPRINGS   CLOUDY    54  43  66 SE7       30.24S

$$




USA.gov is the U.S. government's official web portal to all federal, state and local government web resources and services.